CAPE
-0 nan nan nan nan nan nan nan nan nan nan nan nan nan nan nan nan nan -0 nan nan nan nan nan nan nan -0 2 2 2 4 5 5 5 5 5 5 5 4 4 4 4 3 3 3 3 4 4 4 5 6 8 9 9 11 14 14 15 19 20 20 21 23 26 26 27 26 27 26 26 23 17 13 13 12 11 13 13 14 15 15 16 18 23 23 31
nan nan nan nan nan nan nan nan nan nan nan nan nan nan nan nan nan nan nan nan nan nan nan nan nan nan nan 0 2 2 3 4 5 5 5 5 5 5 5 5 5 4 5 6 6 6 6 6 6 7 7 9 9 9 12 14 14 16 16 18 18 17 18 19 19 18 17 17 15 15 10 7 6 6 5 6 8 8 10 12 12 14 17 24 24 32
nan nan nan nan nan nan nan nan nan nan nan -0 -0 -0 nan nan nan nan nan nan nan nan nan nan nan nan nan -0 3 3 3 4 5 5 5 6 5 5 6 6 6 6 7 8 8 9 10 9 9 10 10 10 11 11 12 13 13 13 12 11 11 10 9 7 7 7 6 5 4 4 2 1 2 2 4 5 6 6 7 8 8 12 16 24 24 30
nan nan nan nan nan nan -0 -0 nan nan nan nan nan nan nan nan nan nan nan nan nan nan nan nan nan nan nan nan 1 1 3 4 5 5 7 8 9 9 9 9 9 9 11 11 11 12 13 13 13 13 12 11 11 11 10 8 8 7 7 5 5 4 3 2 2 2 1 1 0 0 0 1 2 2 4 5 7 7 9 11 11 14 19 26 26 32
nan nan nan -0 -0 nan nan nan nan nan nan nan nan nan nan nan -0 -0 nan nan nan nan nan nan nan nan nan nan -0 -0 2 4 6 6 9 9 10 10 11 9 9 10 13 12 12 13 13 10 10 8 7 6 5 5 5 4 4 3 3 2 2 3 2 2 2 2 2 2 2 2 3 4 5 5 6 9 11 11 14 16 16 19 23 29 29 35
nan nan -0 nan nan -0 nan nan nan nan nan nan nan nan nan nan nan nan nan nan nan nan nan nan nan nan nan nan -0 -0 1 3 4 4 5 5 6 6 6 6 6 7 8 8 8 7 5 3 3 2 2 1 2 2 2 2 2 2 2 3 3 3 4 4 4 5 5 4 6 6 6 7 8 8 9 12 15 15 19 22 22 24 27 34 34 40
nan nan nan nan nan nan nan nan nan nan nan nan nan nan nan nan nan nan nan nan nan nan nan nan nan nan nan nan nan nan nan nan nan nan nan nan nan nan nan -0 -0 1 2 1 1 1 0 -0 -0 nan -0 -0 -0 -0 0 1 1 1 2 2 2 3 4 4 4 5 5 6 6 6 7 9 8 8 10 12 17 17 21 26 26 27 28 36 36 44
nan nan nan nan nan nan nan nan nan nan nan nan nan nan nan nan nan nan nan nan nan nan nan nan nan nan nan nan nan nan nan nan nan nan nan nan nan nan nan nan nan nan nan nan nan nan nan nan nan nan nan nan nan nan nan nan nan nan nan nan nan nan nan 0 0 0 1 2 3 3 4 6 6 6 8 10 12 12 17 24 24 28 30 32 32 36
nan nan nan nan nan nan nan nan nan nan nan nan nan nan nan nan nan nan nan nan nan nan nan nan nan nan nan nan nan nan nan nan nan nan nan nan nan nan nan nan nan nan nan nan nan nan nan nan nan nan nan nan nan nan nan nan nan nan nan nan nan nan nan nan nan 0 1 2 2 2 3 4 6 6 7 9 12 12 14 20 20 26 29 31 31 35
nan nan nan nan nan nan nan nan nan nan nan nan nan nan nan nan nan nan nan nan nan nan nan nan nan nan nan nan nan nan nan nan nan nan nan nan nan nan nan nan nan nan nan nan nan nan nan nan nan nan nan nan nan nan nan nan nan nan nan nan nan nan nan nan nan -0 0 1 3 3 4 5 6 6 8 10 11 11 12 15 15 19 22 27 27 31
nan nan nan nan nan nan nan nan nan nan nan nan nan nan nan nan nan nan nan nan nan nan nan nan nan nan nan nan nan nan nan nan nan nan nan nan nan nan nan nan nan nan nan nan nan nan nan nan nan nan nan nan nan nan nan nan nan nan nan nan nan nan nan nan nan -0 -0 1 2 2 3 5 6 6 8 10 10 10 11 12 12 13 15 20 20 25
nan nan nan nan nan nan nan nan nan nan nan nan nan nan nan nan nan nan nan nan nan nan nan nan nan nan nan nan nan nan nan nan nan nan nan nan nan nan nan nan nan nan nan nan nan nan nan nan nan nan nan nan nan nan nan nan nan nan nan nan nan nan nan nan nan -0 0 1 2 2 3 5 6 6 7 8 8 8 9 9 9 9 12 15 15 20
nan nan nan nan nan nan nan nan nan nan nan nan nan nan nan nan nan nan nan nan nan nan nan nan nan nan nan nan nan nan nan nan nan nan nan nan nan nan nan nan nan nan nan nan nan nan nan nan nan nan nan nan nan nan nan nan nan nan nan nan nan nan nan nan nan -0 0 2 2 2 3 4 5 5 6 8 8 8 9 9 9 10 12 15 15 20
nan nan nan nan nan nan nan nan nan nan nan nan nan nan nan nan nan nan nan nan nan nan nan nan nan nan nan nan nan nan nan nan nan nan nan nan nan nan nan nan nan nan nan nan nan nan nan nan nan nan nan nan nan nan nan nan nan nan nan nan nan nan nan nan nan 0 0 2 2 2 4 5 6 6 7 8 10 10 11 12 12 13 14 16 16 20
nan nan nan nan nan nan nan nan nan nan nan nan nan nan nan nan nan nan nan nan nan nan nan nan nan nan nan nan nan nan nan nan nan nan nan nan nan nan nan nan nan nan nan nan nan nan nan nan nan nan nan nan nan nan nan nan nan nan nan nan nan nan nan -0 -0 0 1 2 4 4 5 6 9 9 10 11 12 12 14 15 15 16 16 18 18 21
nan nan nan nan nan nan nan nan nan nan nan nan nan nan nan nan nan nan nan nan nan nan nan nan nan nan nan nan nan nan nan nan nan nan nan nan nan nan nan nan nan nan nan nan nan nan nan nan nan nan nan nan nan nan nan nan nan nan nan nan nan nan -0 -0 -0 1 2 4 6 6 8 9 9 9 11 13 14 14 15 16 16 17 18 19 19 21
nan nan nan nan nan nan nan nan nan nan nan nan nan nan nan nan nan nan nan nan nan nan nan nan nan nan nan nan nan nan nan nan nan nan nan nan nan nan nan nan nan nan nan nan nan nan nan nan nan nan nan nan nan nan nan nan nan nan nan nan nan nan nan -0 -0 1 3 5 6 6 7 8 9 9 10 12 13 13 15 16 16 18 18 19 19 21
nan nan nan nan nan nan nan nan nan nan nan nan nan nan nan nan nan nan nan nan nan nan nan nan nan nan nan nan nan nan nan nan nan nan nan nan nan nan nan nan nan nan nan nan nan nan nan nan nan nan nan nan nan nan nan nan nan nan nan nan nan nan nan 0 0 1 3 4 5 5 6 7 8 8 9 10 12 12 13 16 16 17 19 19 19 22
nan nan nan nan nan nan nan nan nan nan nan nan nan nan nan nan nan nan nan nan nan nan nan nan nan nan nan nan nan nan nan nan nan nan nan nan nan nan nan nan nan nan nan nan nan nan nan nan nan nan nan nan nan nan nan nan nan nan nan nan nan nan nan 0 0 1 2 3 4 4 4 6 8 8 9 10 12 12 14 15 15 17 19 20 20 20
nan nan nan nan nan nan nan nan nan nan nan nan nan nan nan nan nan nan nan nan nan nan nan nan nan nan nan nan nan nan nan nan nan nan nan nan nan nan nan nan nan nan nan nan nan nan nan nan nan nan nan nan nan nan nan nan nan nan nan nan nan nan -0 0 0 1 2 3 4 4 6 7 8 8 9 10 11 11 14 17 17 19 19 20 20 22
nan nan nan nan nan nan nan nan nan nan nan nan nan nan nan nan nan nan nan nan nan nan nan nan nan nan nan nan nan nan nan nan nan nan nan nan nan nan nan nan nan nan nan nan nan nan nan nan nan nan nan nan nan nan nan nan nan nan nan nan nan -0 0 0 0 1 2 4 5 5 6 7 8 8 10 12 15 15 16 17 17 18 21 21 21 23
nan nan nan nan nan nan nan nan nan nan nan nan nan nan nan nan nan nan nan nan nan nan nan nan nan nan nan nan nan nan nan nan nan nan nan nan nan nan nan nan nan nan nan nan nan nan nan nan nan nan nan nan nan nan nan nan nan nan nan -0 -0 -0 0 1 1 2 3 5 5 5 6 8 10 10 12 14 17 17 17 17 17 18 19 19 19 21
nan nan nan nan nan nan nan nan nan nan nan nan nan nan nan nan nan nan nan nan nan nan nan nan nan nan nan nan nan nan nan nan nan nan nan nan nan nan nan nan nan nan nan nan nan nan nan nan nan nan nan nan nan nan nan nan nan nan nan -0 -0 0 1 2 2 2 4 5 6 6 7 9 12 12 12 13 13 13 13 12 12 13 13 15 15 16
nan nan nan nan nan nan nan nan nan nan nan nan nan nan nan nan nan nan nan nan nan nan nan nan nan nan nan nan nan nan nan nan nan nan nan nan nan nan nan nan nan nan nan nan nan nan nan nan nan nan nan nan nan nan nan nan nan nan nan -0 -0 0 1 1 1 2 2 4 6 6 7 9 8 8 8 9 10 10 8 10 10 10 13 14 14 15
nan nan nan nan nan nan nan nan nan nan nan nan nan nan nan nan nan nan nan nan nan nan nan nan nan nan nan nan nan nan nan nan nan nan nan nan nan nan nan nan nan nan nan nan nan nan nan nan nan nan nan nan nan nan nan nan nan nan nan -0 -0 -0 -0 -0 -0 0 1 2 4 4 5 4 5 5 6 7 7 7 8 11 11 13 15 15 15 16
nan nan nan nan nan nan nan nan nan nan nan nan nan nan nan 1 nan nan nan nan nan nan nan nan nan nan nan nan nan nan nan nan nan nan nan nan nan nan nan nan nan nan nan nan nan nan nan nan nan nan nan nan nan nan nan nan nan nan nan nan nan nan nan nan nan nan 0 1 2 2 3 4 5 5 6 8 9 9 12 13 13 14 15 16 16 17
nan nan nan nan nan nan nan nan nan nan nan nan nan nan nan nan nan nan nan nan nan nan nan nan nan nan nan nan nan nan nan nan nan nan nan nan nan nan nan nan nan nan nan nan nan nan nan nan nan nan nan nan nan nan nan nan nan nan nan nan nan nan nan nan nan -0 0 1 2 2 3 4 6 6 7 9 11 11 14 15 15 15 16 16 16 18
nan nan nan nan nan 0 2 5 7 7 10 1 1 1 -0 nan nan nan nan nan nan nan nan nan nan nan nan nan nan nan nan nan nan nan nan nan nan nan nan nan nan nan nan nan nan nan nan nan nan nan nan nan nan nan nan nan nan nan nan nan nan nan nan nan nan nan -0 0 1 1 3 4 6 6 8 9 10 10 12 14 14 14 15 9 9 -0
nan nan nan nan nan 1 3 5 7 7 9 13 9 9 nan nan nan nan nan nan nan nan nan nan nan nan nan nan nan nan nan nan nan nan nan nan nan nan nan nan nan nan nan nan nan nan nan nan nan nan nan nan nan nan nan nan nan nan nan nan nan nan nan nan nan nan -0 0 2 2 3 4 6 6 7 8 9 9 13 12 12 13 11 4 4 -0
nan nan nan nan nan nan nan nan -0 -0 9 9 10 10 8 nan nan nan nan nan nan nan nan nan nan nan nan nan nan nan nan nan nan nan nan nan nan nan nan nan nan nan nan nan nan nan nan nan nan nan nan nan nan nan nan nan nan nan nan nan nan nan nan nan nan -0 0 1 2 2 3 5 6 6 7 8 9 9 12 12 12 9 1 -0 -0 nan
nan nan nan nan nan nan nan nan nan nan nan 10 7 7 nan nan nan nan nan nan nan nan nan nan nan nan nan nan nan nan nan nan nan nan nan nan nan nan nan nan nan nan nan nan nan nan nan nan nan nan nan nan nan nan nan nan nan nan nan nan nan nan nan -0 -0 -0 0 1 2 2 3 5 6 6 6 8 8 8 9 12 12 8 -0 nan nan nan
nan nan nan nan nan nan nan nan nan nan nan nan nan nan nan nan nan nan nan nan nan nan nan nan nan nan nan -0 -0 -0 nan nan nan nan nan nan nan nan nan nan nan nan nan nan nan nan nan nan nan nan nan nan nan nan nan nan nan nan nan nan nan nan nan nan nan nan nan 0 2 2 3 3 3 3 4 5 5 5 6 7 7 7 nan nan nan nan
nan nan nan nan nan nan nan nan nan nan nan nan nan nan nan nan nan nan nan nan nan nan nan nan nan nan nan nan nan nan nan nan nan nan -0 nan nan nan nan nan nan nan nan nan nan nan nan nan nan nan nan nan nan nan nan nan nan nan nan nan nan nan nan nan nan nan nan nan nan nan 2 1 3 3 3 4 5 5 6 7 7 8 8 nan nan 1
nan nan nan nan nan nan nan nan nan nan nan nan nan nan nan nan nan nan nan nan nan nan nan nan nan nan nan nan nan nan nan nan -0 -0 1 nan -0 -0 -0 -0 -0 nan nan nan nan nan nan nan nan nan nan nan nan nan nan nan nan nan nan nan nan nan nan nan nan nan nan nan nan nan nan nan 0 0 1 3 4 4 6 8 8 12 13 7 7 3
nan nan nan nan nan nan nan nan nan nan nan nan nan nan nan nan nan nan nan nan nan nan nan nan nan nan nan nan nan nan nan nan nan nan 4 nan nan nan nan nan nan nan nan nan nan nan nan nan nan 0 nan nan nan nan nan nan nan nan nan nan nan nan nan nan nan nan nan nan nan nan nan nan nan nan nan 0 4 4 7 9 9 11 12 14 14 7
nan nan nan nan nan nan nan nan nan nan nan nan nan nan nan nan nan nan nan nan nan nan nan nan nan nan nan nan nan nan nan nan nan nan 1 nan nan nan nan nan nan nan nan nan nan nan nan nan nan 0 0 nan nan nan nan nan nan nan nan nan nan nan nan nan nan nan nan nan nan nan nan nan nan nan nan 2 6 6 7 7 7 8 7 8 8 8
nan nan nan nan nan nan nan nan nan nan nan nan nan nan nan nan nan nan nan nan nan nan nan nan nan nan nan nan nan nan nan nan nan nan nan nan nan nan nan nan nan nan nan nan nan nan nan nan nan -0 nan nan nan nan nan nan nan nan nan nan nan nan nan nan nan nan nan nan nan nan nan nan nan nan nan 2 1 1 3 6 6 4 5 6 6 8
nan nan nan nan nan nan nan nan nan nan nan nan nan nan nan nan nan nan nan nan nan nan nan nan nan nan nan 1 nan nan nan nan nan nan nan nan nan nan nan nan nan nan nan nan nan 1 0 -0 -0 nan nan nan nan nan -0 nan nan nan nan nan nan nan nan nan nan nan nan nan nan nan nan nan nan nan nan nan nan nan nan nan nan nan 2 3 3 7
nan nan nan nan nan nan nan nan nan nan nan nan nan nan nan nan nan nan nan nan nan nan nan nan nan nan nan nan nan nan nan nan nan nan nan nan nan nan nan nan nan nan nan -0 -0 0 0 nan nan nan nan nan nan nan nan nan nan nan nan nan nan nan nan nan nan nan nan nan nan nan nan nan nan nan nan nan nan nan nan nan nan nan nan nan nan nan
nan nan nan nan nan nan nan nan nan nan nan nan nan nan nan nan nan nan nan nan nan nan nan nan nan nan nan nan nan nan nan nan nan nan nan nan nan nan nan nan nan nan nan nan nan 0 -0 -0 -0 0 1 nan nan nan nan nan nan nan 0 nan nan nan nan nan nan nan nan nan nan nan nan nan nan nan nan nan nan nan nan nan nan nan nan nan nan nan
nan nan nan nan nan nan nan nan nan nan nan nan nan nan nan nan nan nan nan nan nan nan nan nan nan nan nan nan nan nan nan nan nan nan nan nan nan nan nan nan nan nan nan nan nan -0 0 -0 -0 0 0 -0 0 0 -0 -0 -0 1 4 nan nan nan nan nan nan nan nan nan nan nan nan nan nan nan nan nan nan nan nan nan nan nan nan nan nan nan
0 0 nan nan nan nan nan nan nan nan nan nan nan nan nan nan nan nan nan nan nan nan nan nan nan nan nan nan nan nan nan nan nan nan nan nan nan nan nan nan nan nan nan nan nan nan 0 0 0 0 0 -0 -0 -0 nan nan nan 0 1 nan nan nan -0 nan nan nan nan nan nan nan nan nan nan nan nan nan nan nan nan nan nan nan nan nan nan nan
2 nan nan nan nan nan nan nan nan nan nan nan nan nan nan nan nan nan nan nan nan nan nan nan nan nan nan nan nan nan nan nan nan nan nan nan nan nan nan nan nan nan nan nan nan nan nan 1 1 -0 nan nan -0 -0 nan nan nan -0 -0 0 0 nan nan nan nan nan nan nan nan nan nan nan nan nan nan nan nan nan nan nan nan nan nan nan nan nan
5 -0 nan nan nan nan nan nan nan nan nan nan nan nan nan nan nan nan nan nan nan nan nan nan nan nan nan nan nan nan nan nan nan nan nan nan nan nan nan nan nan nan nan nan nan nan nan nan nan nan nan -0 nan nan nan nan nan nan nan nan nan nan nan nan nan nan nan nan nan nan nan nan nan nan nan nan nan nan nan nan nan nan nan nan nan nan
nan nan nan nan nan nan nan nan nan nan nan nan nan nan nan nan nan nan nan nan nan nan nan nan nan nan nan nan nan nan nan nan nan nan nan nan -0 -0 nan nan nan nan nan nan nan nan nan nan nan nan nan -0 nan nan nan nan nan nan nan nan nan nan nan nan nan nan nan nan nan nan nan nan nan nan nan nan nan nan nan nan nan nan nan nan nan nan
nan nan nan nan nan nan nan nan nan nan nan nan nan nan nan nan nan nan nan nan nan nan nan nan nan nan nan -0 -0 -0 nan nan nan nan nan nan nan nan nan nan nan nan nan nan nan nan nan nan nan nan nan nan nan nan nan nan nan nan nan nan nan nan nan nan nan nan nan nan nan nan nan nan nan nan nan nan nan nan nan nan nan nan nan nan nan nan
nan nan nan nan nan nan nan nan nan nan nan nan nan nan nan nan nan nan nan nan nan nan nan nan nan nan -0 0 -0 -0 -0 -0 nan nan nan nan nan nan nan nan nan nan nan nan nan nan nan nan nan nan nan nan nan nan nan nan nan nan nan nan nan nan nan nan nan nan nan nan nan nan nan nan nan nan nan nan nan nan nan nan nan nan nan nan nan nan
2 2 0 nan nan nan nan nan nan nan nan nan nan nan nan nan nan nan nan nan nan nan 0 nan nan nan -0 -0 nan nan -0 -0 nan nan -0 nan nan nan nan nan nan nan nan nan nan -0 nan nan nan nan nan nan nan nan nan nan nan nan nan nan nan nan nan nan nan nan nan nan nan nan nan nan nan nan nan nan nan nan nan nan nan nan nan nan nan nan
nan -0 0 -0 -0 -0 nan nan nan nan nan nan nan nan nan nan 3 3 nan nan nan nan nan nan nan -0 0 -0 -0 -0 0 1 1 1 -0 nan nan nan nan nan nan nan nan nan nan nan nan nan nan nan nan nan nan nan nan nan nan nan nan nan nan nan nan nan nan nan nan nan nan nan nan nan nan nan nan nan nan nan nan nan nan nan nan nan nan nan
nan nan nan nan nan nan nan nan nan nan -0 nan nan nan nan nan nan nan nan nan nan nan -0 -0 -0 0 1 0 -0 -0 1 0 0 0 -0 nan nan nan nan nan nan nan nan nan nan nan nan nan nan -0 3 nan nan nan nan nan nan nan nan nan nan nan nan nan nan nan nan nan nan nan nan nan nan nan nan nan nan nan nan nan nan nan nan nan nan nan
nan nan nan nan nan nan nan nan -0 -0 nan -0 nan nan nan nan nan nan nan nan nan nan 0 2 2 1 2 1 1 1 1 1 0 0 -0 nan nan nan nan nan nan nan nan nan nan nan nan nan nan nan nan 7 nan nan nan nan nan nan nan nan nan nan nan nan nan nan nan nan nan nan nan nan nan nan nan nan nan nan nan nan nan nan nan nan nan nan
CIN
-0 nan nan nan nan nan nan nan nan nan nan nan nan nan nan nan nan nan -0 nan nan nan nan nan nan nan -0 -0 -0 -0 -0 -0 -0 -0 -0 -0 -0 -0 -0 -0 -0 -0 -0 -0 -0 -0 -0 -0 -0 -0 -0 -0 -0 -0 -0 -0 -0 -0 -0 -0 -0 -0 -0 -0 -0 -0 -0 -0 -0 -0 -0 -0 -0 -0 -0 -0 -0 -0 -0 -0 -0 -0 -0 -0 -0 -0
nan nan nan nan nan nan nan nan nan nan nan nan nan nan nan nan nan nan nan nan nan nan nan nan nan nan nan -0 -0 -0 -0 -0 -0 -0 -0 -0 -0 -0 -0 -0 -0 -0 -0 -0 -0 -0 -0 -0 -0 -0 -0 -0 -0 -0 -0 -0 -0 -0 -0 -0 -0 -0 -0 -0 -0 -0 -0 -0 -0 -0 -0 -0 -0 -0 -0 -0 -0 -0 -0 -0 -0 -0 -0 -0 -0 -0
nan nan nan nan nan nan nan nan nan nan nan -0 -0 -0 nan nan nan nan nan nan nan nan nan nan nan nan nan -0 -0 -0 -0 -0 -0 -0 -0 -0 -0 -0 -0 -0 -0 -0 -0 -0 -0 -0 -0 -0 -0 -0 -0 -0 -0 -0 -0 -0 -0 -0 -0 -0 -0 -0 -0 -0 -0 -0 -0 -0 -0 -0 -0 -0 -0 -0 -0 -0 -0 -0 -0 -0 -0 -0 -0 -0 -0 -0
nan nan nan nan nan nan -0 -0 nan nan nan nan nan nan nan nan nan nan nan nan nan nan nan nan nan nan nan nan -0 -0 -0 -0 -0 -0 -0 -0 -0 -0 -0 -0 -0 -0 -0 -0 -0 -0 -0 -0 -0 -0 -0 -0 -0 -0 -0 -0 -0 -0 -0 -0 -0 -0 -0 -0 -0 -0 -0 -0 -0 -0 -0 -0 -0 -0 -0 -0 -0 -0 -0 -0 -0 -0 -0 -0 -0 -0
nan nan nan -0 -0 nan nan nan nan nan nan nan nan nan nan nan -0 -0 nan nan nan nan nan nan nan nan nan nan -0 -0 -0 -0 -0 -0 -0 -0 -0 -0 -0 -0 -0 -0 -0 -0 -0 -0 -0 -0 -0 -0 -0 -0 -0 -0 -0 -0 -0 -0 -0 -0 -0 -0 -0 -0 -0 -0 -0 -0 -0 -0 -0 -0 -0 -0 -0 -0 -0 -0 -0 -0 -0 -0 -0 -0 -0 -0
nan nan -0 nan nan -0 nan nan nan nan nan nan nan nan nan nan nan nan nan nan nan nan nan nan nan nan nan nan -0 -0 -0 -0 -0 -0 -0 -0 -0 -0 -0 -0 -0 -0 -0 -0 -0 -0 -0 -0 -0 -0 -0 -0 -0 -0 -0 -0 -0 -0 -0 -0 -0 -0 -0 -0 -0 -0 -0 -0 -0 -0 -0 -0 -0 -0 -0 -0 -0 -0 -0 -0 -0 -0 -0 -0 -0 -0
nan nan nan nan nan nan nan nan nan nan nan nan nan nan nan nan nan nan nan nan nan nan nan nan nan nan nan nan nan nan nan nan nan nan nan nan nan nan nan -0 -0 -0 -0 -0 -0 -0 -0 -0 -0 nan -0 -0 -0 -0 -0 -0 -0 -0 -0 -0 -0 -0 -0 -0 -0 -0 -0 -0 -0 -0 -0 -0 -0 -0 -0 -0 -0 -0 -0 -0 -0 -0 -0 -0 -0 -0
nan nan nan nan nan nan nan nan nan nan nan nan nan nan nan nan nan nan nan nan nan nan nan nan nan nan nan nan nan nan nan nan nan nan nan nan nan nan nan nan nan nan nan nan nan nan nan nan nan nan nan nan nan nan nan nan nan nan nan nan nan nan nan -0 -0 -0 -0 -0 -0 -0 -0 -0 -0 -0 -0 -0 -0 -0 -0 -0 -0 -0 -0 -0 -0 -0
nan nan nan nan nan nan nan nan nan nan nan nan nan nan nan nan nan nan nan nan nan nan nan nan nan nan nan nan nan nan nan nan nan nan nan nan nan nan nan nan nan nan nan nan nan nan nan nan nan nan nan nan nan nan nan nan nan nan nan nan nan nan nan nan nan -0 -0 -0 -0 -0 -0 -0 -0 -0 -0 -0 -0 -0 -0 -0 -0 -0 -0 -0 -0 -0
nan nan nan nan nan nan nan nan nan nan nan nan nan nan nan nan nan nan nan nan nan nan nan nan nan nan nan nan nan nan nan nan nan nan nan nan nan nan nan nan nan nan nan nan nan nan nan nan nan nan nan nan nan nan nan nan nan nan nan nan nan nan nan nan nan -0 -0 -0 -0 -0 -0 -0 -0 -0 -0 -0 -0 -0 -0 -0 -0 -0 -0 -0 -0 -0
nan nan nan nan nan nan nan nan nan nan nan nan nan nan nan nan nan nan nan nan nan nan nan nan nan nan nan nan nan nan nan nan nan nan nan nan nan nan nan nan nan nan nan nan nan nan nan nan nan nan nan nan nan nan nan nan nan nan nan nan nan nan nan nan nan -0 -0 -0 -0 -0 -0 -0 -0 -0 -0 -0 -0 -0 -0 -0 -0 -0 -0 -0 -0 -0
nan nan nan nan nan nan nan nan nan nan nan nan nan nan nan nan nan nan nan nan nan nan nan nan nan nan nan nan nan nan nan nan nan nan nan nan nan nan nan nan nan nan nan nan nan nan nan nan nan nan nan nan nan nan nan nan nan nan nan nan nan nan nan nan nan -0 -0 -0 -0 -0 -0 -0 -0 -0 -0 -0 -0 -0 -0 -0 -0 -0 -0 -0 -0 -0
nan nan nan nan nan nan nan nan nan nan nan nan nan nan nan nan nan nan nan nan nan nan nan nan nan nan nan nan nan nan nan nan nan nan nan nan nan nan nan nan nan nan nan nan nan nan nan nan nan nan nan nan nan nan nan nan nan nan nan nan nan nan nan nan nan -0 -0 -0 -0 -0 -0 -0 -0 -0 -0 -0 -0 -0 -0 -0 -0 -0 -0 -0 -0 -0
nan nan nan nan nan nan nan nan nan nan nan nan nan nan nan nan nan nan nan nan nan nan nan nan nan nan nan nan nan nan nan nan nan nan nan nan nan nan nan nan nan nan nan nan nan nan nan nan nan nan nan nan nan nan nan nan nan nan nan nan nan nan nan nan nan -0 -0 -0 -0 -0 -0 -0 -0 -0 -0 -0 -0 -0 -0 -0 -0 -0 -0 -0 -0 -0
nan nan nan nan nan nan nan nan nan nan nan nan nan nan nan nan nan nan nan nan nan nan nan nan nan nan nan nan nan nan nan nan nan nan nan nan nan nan nan nan nan nan nan nan nan nan nan nan nan nan nan nan nan nan nan nan nan nan nan nan nan nan nan -0 -0 -0 -0 -0 -0 -0 -0 -0 -0 -0 -0 -0 -0 -0 -0 -0 -0 -0 -0 -0 -0 -0
nan nan nan nan nan nan nan nan nan nan nan nan nan nan nan nan nan nan nan nan nan nan nan nan nan nan nan nan nan nan nan nan nan nan nan nan nan nan nan nan nan nan nan nan nan nan nan nan nan nan nan nan nan nan nan nan nan nan nan nan nan nan -0 -0 -0 -0 -0 -0 -0 -0 -0 -0 -0 -0 -0 -0 -0 -0 -0 -0 -0 -0 -0 -0 -0 -0
nan nan nan nan nan nan nan nan nan nan nan nan nan nan nan nan nan nan nan nan nan nan nan nan nan nan nan nan nan nan nan nan nan nan nan nan nan nan nan nan nan nan nan nan nan nan nan nan nan nan nan nan nan nan nan nan nan nan nan nan nan nan nan -0 -0 -0 -0 -0 -0 -0 -0 -0 -0 -0 -0 -0 -0 -0 -0 -0 -0 -0 -0 -0 -0 -0
nan nan nan nan nan nan nan nan nan nan nan nan nan nan nan nan nan nan nan nan nan nan nan nan nan nan nan nan nan nan nan nan nan nan nan nan nan nan nan nan nan nan nan nan nan nan nan nan nan nan nan nan nan nan nan nan nan nan nan nan nan nan nan -0 -0 -0 -0 -0 -0 -0 -0 -0 -0 -0 -0 -0 -0 -0 -0 -0 -0 -0 -0 -0 -0 -0
nan nan nan nan nan nan nan nan nan nan nan nan nan nan nan nan nan nan nan nan nan nan nan nan nan nan nan nan nan nan nan nan nan nan nan nan nan nan nan nan nan nan nan nan nan nan nan nan nan nan nan nan nan nan nan nan nan nan nan nan nan nan nan -0 -0 -0 -0 -0 -0 -0 -0 -0 -0 -0 -0 -0 -0 -0 -0 -0 -0 -0 -0 -0 -0 -0
nan nan nan nan nan nan nan nan nan nan nan nan nan nan nan nan nan nan nan nan nan nan nan nan nan nan nan nan nan nan nan nan nan nan nan nan nan nan nan nan nan nan nan nan nan nan nan nan nan nan nan nan nan nan nan nan nan nan nan nan nan nan -0 -0 -0 -0 -0 -0 -0 -0 -0 -0 -0 -0 -0 -0 -0 -0 -0 -0 -0 -0 -0 -0 -0 -0
nan nan nan nan nan nan nan nan nan nan nan nan nan nan nan nan nan nan nan nan nan nan nan nan nan nan nan nan nan nan nan nan nan nan nan nan nan nan nan nan nan nan nan nan nan nan nan nan nan nan nan nan nan nan nan nan nan nan nan nan nan -0 -0 -0 -0 -0 -0 -0 -0 -0 -0 -0 -0 -0 -0 -0 -0 -0 -0 -0 -0 -0 -0 -0 -0 -0
nan nan nan nan nan nan nan nan nan nan nan nan nan nan nan nan nan nan nan nan nan nan nan nan nan nan nan nan nan nan nan nan nan nan nan nan nan nan nan nan nan nan nan nan nan nan nan nan nan nan nan nan nan nan nan nan nan nan nan -0 -0 -0 -0 -0 -0 -0 -0 -0 -0 -0 -0 -0 -0 -0 -0 -0 -0 -0 -0 -0 -0 -0 -0 -0 -0 -0
nan nan nan nan nan nan nan nan nan nan nan nan nan nan nan nan nan nan nan nan nan nan nan nan nan nan nan nan nan nan nan nan nan nan nan nan nan nan nan nan nan nan nan nan nan nan nan nan nan nan nan nan nan nan nan nan nan nan nan -0 -0 -0 -0 -0 -0 -0 -0 -0 -0 -0 -0 -0 -0 -0 -0 -0 -0 -0 -0 -0 -0 -0 -0 -0 -0 -0
nan nan nan nan nan nan nan nan nan nan nan nan nan nan nan nan nan nan nan nan nan nan nan nan nan nan nan nan nan nan nan nan nan nan nan nan nan nan nan nan nan nan nan nan nan nan nan nan nan nan nan nan nan nan nan nan nan nan nan -0 -0 -0 -0 -0 -0 -0 -0 -0 -0 -0 -0 -0 -0 -0 -0 -0 -0 -0 -0 -0 -0 -0 -0 -0 -0 -0
nan nan nan nan nan nan nan nan nan nan nan nan nan nan nan nan nan nan nan nan nan nan nan nan nan nan nan nan nan nan nan nan nan nan nan nan nan nan nan nan nan nan nan nan nan nan nan nan nan nan nan nan nan nan nan nan nan nan nan -0 -0 -0 -0 -0 -0 -0 -0 -0 -0 -0 -0 -0 -0 -0 -0 -0 -0 -0 -0 -0 -0 -0 -0 -0 -0 -0
nan nan nan nan nan nan nan nan nan nan nan nan nan nan nan -0 nan nan nan nan nan nan nan nan nan nan nan nan nan nan nan nan nan nan nan nan nan nan nan nan nan nan nan nan nan nan nan nan nan nan nan nan nan nan nan nan nan nan nan nan nan nan nan nan nan nan -0 -0 -0 -0 -0 -0 -0 -0 -0 -0 -0 -0 -0 -0 -0 -0 -0 -0 -0 -0
nan nan nan nan nan nan nan nan nan nan nan nan nan nan nan nan nan nan nan nan nan nan nan nan nan nan nan nan nan nan nan nan nan nan nan nan nan nan nan nan nan nan nan nan nan nan nan nan nan nan nan nan nan nan nan nan nan nan nan nan nan nan nan nan nan -0 -0 -0 -0 -0 -0 -0 -0 -0 -0 -0 -0 -0 -0 -0 -0 -0 -0 -0 -0 -0
nan nan nan nan nan -1 -0 -0 -0 -0 -0 -7 -0 -0 -0 nan nan nan nan nan nan nan nan nan nan nan nan nan nan nan nan nan nan nan nan nan nan nan nan nan nan nan nan nan nan nan nan nan nan nan nan nan nan nan nan nan nan nan nan nan nan nan nan nan nan nan -0 -0 -0 -0 -0 -0 -0 -0 -0 -0 -0 -0 -0 -0 -0 -0 -0 -0 -0 -10
nan nan nan nan nan -0 -0 -0 -0 -0 -0 -0 -2 -2 nan nan nan nan nan nan nan nan nan nan nan nan nan nan nan nan nan nan nan nan nan nan nan nan nan nan nan nan nan nan nan nan nan nan nan nan nan nan nan nan nan nan nan nan nan nan nan nan nan nan nan nan -0 -0 -0 -0 -0 -0 -0 -0 -0 -0 -0 -0 -0 -0 -0 -0 -0 -0 -0 -5
nan nan nan nan nan nan nan nan -16 -16 -0 -0 -0 -0 -6 nan nan nan nan nan nan nan nan nan nan nan nan nan nan nan nan nan nan nan nan nan nan nan nan nan nan nan nan nan nan nan nan nan nan nan nan nan nan nan nan nan nan nan nan nan nan nan nan nan nan -0 -0 -0 -0 -0 -0 -0 -0 -0 -0 -0 -0 -0 -0 -0 -0 -0 -4 -13 -13 nan
nan nan nan nan nan nan nan nan nan nan nan -0 -0 -0 nan nan nan nan nan nan nan nan nan nan nan nan nan nan nan nan nan nan nan nan nan nan nan nan nan nan nan nan nan nan nan nan nan nan nan nan nan nan nan nan nan nan nan nan nan nan nan nan nan -0 -0 -0 -0 -0 -0 -0 -0 -0 -0 -0 -0 -0 -0 -0 -0 -0 -0 -0 -11 nan nan nan
nan nan nan nan nan nan nan nan nan nan nan nan nan nan nan nan nan nan nan nan nan nan nan nan nan nan nan -6 -3 -3 nan nan nan nan nan nan nan nan nan nan nan nan nan nan nan nan nan nan nan nan nan nan nan nan nan nan nan nan nan nan nan nan nan nan nan nan nan -0 -0 -0 -0 -0 -0 -0 -0 -0 -0 -0 -0 -0 -0 -0 nan nan nan nan
nan nan nan nan nan nan nan nan nan nan nan nan nan nan nan nan nan nan nan nan nan nan nan nan nan nan nan nan nan nan nan nan nan nan -20 nan nan nan nan nan nan nan nan nan nan nan nan nan nan nan nan nan nan nan nan nan nan nan nan nan nan nan nan nan nan nan nan nan nan nan -0 -0 -0 -0 -0 -0 -0 -0 -0 -0 -0 -0 -0 nan nan -9
nan nan nan nan nan nan nan nan nan nan nan nan nan nan nan nan nan nan nan nan nan nan nan nan nan nan nan nan nan nan nan nan -18 -18 -16 nan -12 -12 -13 -14 -14 nan nan nan nan nan nan nan nan nan nan nan nan nan nan nan nan nan nan nan nan nan nan nan nan nan nan nan nan nan nan nan -0 -0 -0 -0 -0 -0 -0 -0 -0 -0 -0 -0 -0 -3
nan nan nan nan nan nan nan nan nan nan nan nan nan nan nan nan nan nan nan nan nan nan nan nan nan nan nan nan nan nan nan nan nan nan -13 nan nan nan nan nan nan nan nan nan nan nan nan nan nan -2 nan nan nan nan nan nan nan nan nan nan nan nan nan nan nan nan nan nan nan nan nan nan nan nan nan -0 -0 -0 -0 -0 -0 -0 -0 -0 -0 -0
nan nan nan nan nan nan nan nan nan nan nan nan nan nan nan nan nan nan nan nan nan nan nan nan nan nan nan nan nan nan nan nan nan nan -21 nan nan nan nan nan nan nan nan nan nan nan nan nan nan -1 -0 nan nan nan nan nan nan nan nan nan nan nan nan nan nan nan nan nan nan nan nan nan nan nan nan -0 -0 -0 -0 -0 -0 -0 -0 -0 -0 -0
nan nan nan nan nan nan nan nan nan nan nan nan nan nan nan nan nan nan nan nan nan nan nan nan nan nan nan nan nan nan nan nan nan nan nan nan nan nan nan nan nan nan nan nan nan nan nan nan nan -2 nan nan nan nan nan nan nan nan nan nan nan nan nan nan nan nan nan nan nan nan nan nan nan nan nan -0 -0 -0 -0 -0 -0 -0 -0 -0 -0 -0
nan nan nan nan nan nan nan nan nan nan nan nan nan nan nan nan nan nan nan nan nan nan nan nan nan nan nan -19 nan nan nan nan nan nan nan nan nan nan nan nan nan nan nan nan nan -4 -3 -3 -3 nan nan nan nan nan -3 nan nan nan nan nan nan nan nan nan nan nan nan nan nan nan nan nan nan nan nan nan nan nan nan nan nan nan -0 -0 -0 -0
nan nan nan nan nan nan nan nan nan nan nan nan nan nan nan nan nan nan nan nan nan nan nan nan nan nan nan nan nan nan nan nan nan nan nan nan nan nan nan nan nan nan nan -14 -14 -7 -5 nan nan nan nan nan nan nan nan nan nan nan nan nan nan nan nan nan nan nan nan nan nan nan nan nan nan nan nan nan nan nan nan nan nan nan nan nan nan nan
nan nan nan nan nan nan nan nan nan nan nan nan nan nan nan nan nan nan nan nan nan nan nan nan nan nan nan nan nan nan nan nan nan nan nan nan nan nan nan nan nan nan nan nan nan -12 -8 -6 -6 -4 -2 nan nan nan nan nan nan nan -2 nan nan nan nan nan nan nan nan nan nan nan nan nan nan nan nan nan nan nan nan nan nan nan nan nan nan nan
nan nan nan nan nan nan nan nan nan nan nan nan nan nan nan nan nan nan nan nan nan nan nan nan nan nan nan nan nan nan nan nan nan nan nan nan nan nan nan nan nan nan nan nan nan -15 -9 -6 -6 -4 -5 -6 -3 -3 -4 -5 -5 -0 -0 nan nan nan nan nan nan nan nan nan nan nan nan nan nan nan nan nan nan nan nan nan nan nan nan nan nan nan
-8 -11 nan nan nan nan nan nan nan nan nan nan nan nan nan nan nan nan nan nan nan nan nan nan nan nan nan nan nan nan nan nan nan nan nan nan nan nan nan nan nan nan nan nan nan nan -8 -5 -5 -4 -5 -6 -4 -4 nan nan nan -1 -0 nan nan nan -4 nan nan nan nan nan nan nan nan nan nan nan nan nan nan nan nan nan nan nan nan nan nan nan
-6 nan nan nan nan nan nan nan nan nan nan nan nan nan nan nan nan nan nan nan nan nan nan nan nan nan nan nan nan nan nan nan nan nan nan nan nan nan nan nan nan nan nan nan nan nan nan -5 -5 -6 nan nan -6 -6 nan nan nan -4 -5 -3 -3 nan nan nan nan nan nan nan nan nan nan nan nan nan nan nan nan nan nan nan nan nan nan nan nan nan
-6 -19 nan nan nan nan nan nan nan nan nan nan nan nan nan nan nan nan nan nan nan nan nan nan nan nan nan nan nan nan nan nan nan nan nan nan nan nan nan nan nan nan nan nan nan nan nan nan nan nan nan -11 nan nan nan nan nan nan nan nan nan nan nan nan nan nan nan nan nan nan nan nan nan nan nan nan nan nan nan nan nan nan nan nan nan nan
nan nan nan nan nan nan nan nan nan nan nan nan nan nan nan nan nan nan nan nan nan nan nan nan nan nan nan nan nan nan nan nan nan nan nan nan -35 -35 nan nan nan nan nan nan nan nan nan nan nan nan nan -11 nan nan nan nan nan nan nan nan nan nan nan nan nan nan nan nan nan nan nan nan nan nan nan nan nan nan nan nan nan nan nan nan nan nan
nan nan nan nan nan nan nan nan nan nan nan nan nan nan nan nan nan nan nan nan nan nan nan nan nan nan nan -8 -12 -12 nan nan nan nan nan nan nan nan nan nan nan nan nan nan nan nan nan nan nan nan nan nan nan nan nan nan nan nan nan nan nan nan nan nan nan nan nan nan nan nan nan nan nan nan nan nan nan nan nan nan nan nan nan nan nan nan
nan nan nan nan nan nan nan nan nan nan nan nan nan nan nan nan nan nan nan nan nan nan nan nan nan nan -11 -10 -12 -12 -12 -14 nan nan nan nan nan nan nan nan nan nan nan nan nan nan nan nan nan nan nan nan nan nan nan nan nan nan nan nan nan nan nan nan nan nan nan nan nan nan nan nan nan nan nan nan nan nan nan nan nan nan nan nan nan nan
-7 -9 -16 nan nan nan nan nan nan nan nan nan nan nan nan nan nan nan nan nan nan nan -19 nan nan nan -13 -14 nan nan -12 -12 nan nan -17 nan nan nan nan nan nan nan nan nan nan -26 nan nan nan nan nan nan nan nan nan nan nan nan nan nan nan nan nan nan nan nan nan nan nan nan nan nan nan nan nan nan nan nan nan nan nan nan nan nan nan nan
nan -18 -15 -19 -19 -17 nan nan nan nan nan nan nan nan nan nan -9 -9 nan nan nan nan nan nan nan -13 -11 -13 -15 -15 -14 -13 -16 -16 -20 nan nan nan nan nan nan nan nan nan nan nan nan nan nan nan nan nan nan nan nan nan nan nan nan nan nan nan nan nan nan nan nan nan nan nan nan nan nan nan nan nan nan nan nan nan nan nan nan nan nan nan
nan nan nan nan nan nan nan nan nan nan -24 nan nan nan nan nan nan nan nan nan nan nan -23 -15 -15 -10 -9 -10 -13 -13 -16 -17 -17 -17 -21 nan nan nan nan nan nan nan nan nan nan nan nan nan nan -21 -12 nan nan nan nan nan nan nan nan nan nan nan nan nan nan nan nan nan nan nan nan nan nan nan nan nan nan nan nan nan nan nan nan nan nan nan
nan nan nan nan nan nan nan nan -20 -20 nan -19 nan nan nan nan nan nan nan nan nan nan -18 -13 -13 -10 -7 -8 -11 -11 -14 -15 -14 -14 -18 nan nan nan nan nan nan nan nan nan nan nan nan nan nan nan nan -0 nan nan nan nan nan nan nan nan nan nan nan nan nan nan nan nan nan nan nan nan nan nan nan nan nan nan nan nan nan nan nan nan nan nan
Wind_Speed
1 1 1 2 2 2 2 4 4 3 3 2 2 2 3 4 4 4 6 5 5 4 4 3 3 4 5 7 8 8 8 8 7 7 6 6 6 5 5 5 4 4 4 3 3 3 3 4 4 4 5 5 6 7 7 8 8 9 9 10 10 11 11 12 12 13 13 14 14 14 15 15 15 15 16 16 16 17 17 17 18 18 18 18 19 19
1 1 1 2 2 2 1 3 4 3 3 2 2 2 2 2 3 3 3 4 4 3 3 3 3 3 4 5 6 7 7 7 6 6 5 5 4 4 4 3 3 3 3 3 4 4 4 4 5 5 6 6 7 7 8 9 9 10 10 11 11 12 12 13 13 14 14 15 15 15 15 15 15 16 16 16 17 17 18 18 18 18 18 19 19 20
1 1 1 2 2 1 0 2 2 3 3 2 2 2 2 2 2 2 2 2 2 2 2 2 2 2 3 3 5 6 7 7 7 6 6 5 5 5 4 4 4 4 4 5 5 5 5 5 6 6 6 7 7 8 9 9 10 11 11 12 12 13 13 14 14 15 15 15 15 15 16 16 16 16 17 17 17 18 18 18 19 19 19 19 20 20
0 0 0 1 1 0 0 1 2 2 2 2 2 2 2 2 1 1 1 1 1 1 1 1 1 2 2 2 4 5 6 7 7 7 7 7 6 6 6 5 5 5 5 5 5 5 6 6 6 7 7 7 8 9 9 10 11 11 12 12 13 13 14 14 15 15 15 15 16 16 16 16 16 17 17 17 18 18 18 19 19 19 19 20 20 20
1 1 1 0 0 0 1 1 2 2 2 1 1 2 2 1 1 1 1 1 1 1 1 1 1 1 1 1 3 5 6 7 7 7 8 8 7 7 7 6 6 6 6 6 6 6 6 6 7 7 8 8 9 9 10 10 11 12 12 13 13 13 14 14 15 15 15 15 16 16 16 16 16 17 17 17 18 18 18 19 19 19 19 20 20 20
1 1 1 1 1 1 1 1 1 1 1 1 1 1 1 1 1 1 1 1 1 1 1 1 1 1 1 1 3 4 6 6 7 7 8 8 8 7 7 7 7 6 6 6 6 6 7 7 8 8 8 9 10 10 11 11 11 12 12 13 13 13 14 14 15 15 15 15 16 16 16 16 16 17 17 17 18 18 18 19 19 19 19 20 20 20
1 1 1 1 1 1 1 1 1 1 1 1 1 1 1 1 1 1 0 0 0 1 1 1 1 1 1 2 3 4 5 6 6 7 7 8 8 8 8 7 7 7 7 7 7 7 7 8 8 9 9 10 10 11 11 11 12 12 12 13 13 13 14 14 15 15 15 15 16 16 16 16 16 16 17 17 17 18 18 18 19 19 19 19 20 20
1 0 0 0 0 1 1 0 0 1 1 1 1 1 1 1 1 1 1 0 0 0 1 1 1 1 1 1 2 2 3 3 4 5 6 6 7 7 7 8 8 8 7 7 7 8 8 8 9 9 10 10 11 11 12 12 12 12 12 13 13 13 14 14 14 15 15 15 15 16 16 16 16 16 16 17 17 17 18 18 18 19 19 19 19 20
1 1 0 0 0 0 0 1 1 1 1 1 1 1 1 2 2 2 1 1 1 1 1 1 1 1 1 1 1 1 2 2 2 3 3 4 4 5 6 7 7 7 7 7 8 8 8 9 10 10 11 11 12 12 12 12 12 12 13 13 13 13 14 14 14 15 15 15 15 15 15 15 16 16 16 16 16 17 17 17 18 18 19 19 19 19
1 1 0 0 0 0 0 1 1 2 1 1 1 1 1 1 1 2 2 2 2 2 1 1 1 2 2 2 1 1 2 2 3 4 4 4 4 5 5 5 5 6 7 7 8 8 9 10 10 11 12 12 12 13 13 13 12 13 13 13 13 13 14 14 14 14 15 15 15 15 15 15 15 15 15 16 16 16 16 16 17 17 18 18 18 19
0 0 0 0 0 0 0 1 1 2 1 1 2 1 1 1 1 1 2 2 2 2 2 1 1 1 2 2 2 2 2 2 3 4 5 5 5 5 5 5 5 5 6 7 8 8 9 10 11 12 12 12 13 13 13 12 12 13 13 13 13 14 14 14 14 15 15 15 15 15 15 15 15 15 15 15 15 15 15 16 16 16 17 17 17 18
1 0 0 1 1 1 1 1 2 2 2 2 2 2 2 1 1 1 1 1 2 2 2 2 1 1 1 2 2 3 3 2 2 3 3 4 4 4 4 4 4 5 5 6 7 8 9 10 11 11 11 12 12 12 12 12 12 13 13 14 14 14 14 14 14 15 15 14 15 15 15 15 15 15 15 15 15 15 15 15 15 16 16 16 17 17
1 1 1 1 1 1 1 2 2 2 2 1 1 0 1 1 1 1 1 0 1 1 2 2 2 1 2 2 2 2 2 2 2 2 3 3 3 3 2 2 2 3 3 4 4 5 7 9 9 10 10 11 12 12 13 12 13 13 14 14 14 14 14 14 14 14 14 14 14 14 15 15 15 15 15 15 15 15 15 15 16 16 16 16 17 17
1 1 1 1 1 1 1 1 0 0 0 0 1 1 1 1 0 1 1 0 1 1 1 1 2 2 2 2 2 2 2 2 2 3 3 3 2 2 1 2 2 2 2 2 3 4 6 6 6 7 9 10 11 11 12 12 13 13 13 14 14 14 14 14 14 14 14 14 14 15 15 15 15 15 15 15 15 16 16 16 16 16 17 17 17 18
1 1 1 0 0 1 1 0 1 1 1 1 1 1 0 0 1 1 1 1 1 2 2 2 2 2 2 1 2 2 2 2 3 3 3 3 2 1 0 1 2 2 2 2 3 4 5 4 4 4 6 7 8 10 11 11 12 13 13 13 14 14 14 14 14 14 15 15 15 15 15 15 15 15 15 16 16 16 16 16 17 17 17 17 18 18
1 1 1 1 1 1 1 1 1 1 1 1 0 0 1 1 1 1 1 0 1 2 2 2 2 2 2 1 1 2 2 3 3 3 3 3 2 1 0 0 1 2 2 3 3 3 3 3 3 4 4 7 10 11 13 12 13 13 13 14 14 14 14 14 15 15 15 15 15 15 15 15 16 16 16 16 16 16 17 17 17 17 18 18 18 18
1 1 1 1 1 2 2 1 1 1 1 0 0 0 1 1 1 1 1 1 1 1 2 1 1 1 2 2 2 2 2 3 3 3 3 3 3 1 1 0 1 3 3 3 3 3 3 3 3 4 4 8 10 12 13 13 13 13 14 14 14 14 15 15 15 15 15 15 15 16 16 16 16 16 16 16 16 17 17 17 18 18 18 18 19 19
1 1 2 1 1 2 1 1 1 1 0 0 0 1 1 1 1 1 1 1 1 1 1 1 1 1 1 2 2 1 1 2 2 3 3 4 3 2 0 1 1 2 3 3 3 3 3 3 3 4 6 9 12 13 13 14 14 14 14 15 15 15 15 15 16 16 16 16 16 16 16 16 16 16 16 17 17 17 17 18 18 18 18 19 19 19
2 2 2 2 2 1 1 1 1 2 1 1 1 1 1 1 1 1 1 1 1 2 2 1 1 1 2 2 3 2 0 1 1 2 3 4 3 2 0 0 1 2 3 3 3 3 3 3 5 7 9 11 13 13 14 14 14 15 15 15 15 16 16 16 16 16 16 16 16 16 16 16 16 16 16 17 17 17 17 18 18 18 18 19 19 19
2 2 2 2 2 2 1 2 3 3 3 3 2 2 1 1 1 1 1 1 1 1 2 1 1 2 2 2 3 2 0 1 1 1 2 3 3 2 1 0 0 2 3 3 3 3 3 3 4 6 9 11 12 13 14 15 15 15 16 16 16 16 16 16 16 16 16 16 16 16 16 16 16 16 16 17 17 17 17 17 17 18 18 18 19 19
2 2 3 3 3 2 2 2 3 3 3 3 3 3 2 1 1 1 0 1 1 1 1 1 1 2 2 2 3 3 1 1 1 1 2 2 3 2 1 1 0 1 3 3 3 3 3 3 3 4 6 10 12 14 15 15 16 16 16 16 16 16 16 16 16 16 16 16 16 16 16 16 16 16 16 16 16 16 17 17 17 18 18 18 19 19
2 2 3 3 3 3 3 3 3 3 4 4 4 3 2 2 2 1 1 1 1 1 1 2 2 2 2 2 3 2 0 1 1 0 1 2 3 3 1 1 1 1 3 3 3 3 2 3 3 4 7 11 13 15 16 16 16 16 16 16 16 16 15 15 15 15 15 15 15 15 15 15 15 15 16 16 16 16 17 17 18 18 19 19 20 20
2 2 3 3 3 3 2 2 2 3 3 3 3 3 3 3 3 3 3 3 3 3 3 2 2 2 2 2 2 2 1 1 1 1 1 1 3 3 2 1 1 2 3 3 3 3 3 3 4 5 7 11 14 15 16 16 16 16 15 15 15 14 14 14 14 14 14 14 15 15 15 15 15 16 16 16 17 17 18 18 19 19 20 20 20 21
2 2 2 3 3 3 2 2 2 2 2 2 2 2 2 3 3 3 3 3 2 2 1 1 1 2 2 2 2 2 2 1 1 2 1 1 3 3 2 1 2 3 4 3 3 3 4 4 4 4 6 10 13 14 15 15 15 14 14 13 13 13 13 13 14 14 14 15 15 15 16 16 16 17 17 18 18 19 19 19 20 20 20 20 21 21
3 3 3 3 4 4 3 3 3 3 3 2 2 2 2 2 2 2 2 2 1 1 1 1 2 2 2 2 2 2 2 1 1 2 1 1 2 3 2 1 2 3 4 4 3 3 4 5 5 4 4 7 10 12 13 13 13 12 12 12 12 13 13 14 14 15 15 16 16 17 17 17 18 18 18 19 19 19 19 19 19 19 20 20 20 20
4 4 4 5 6 6 6 6 6 6 6 4 3 3 3 3 2 2 2 2 1 2 2 2 1 1 1 1 2 2 2 1 0 1 1 1 2 2 2 1 1 3 5 4 4 4 5 6 5 4 4 5 7 9 10 11 11 11 12 12 13 14 15 15 16 17 17 17 17 18 18 18 18 18 18 18 18 18 18 19 19 19 20 20 20 19
6 6 7 7 7 7 7 7 7 7 8 7 6 5 4 3 2 2 1 1 1 2 2 1 1 1 1 1 1 2 3 1 0 1 2 1 1 2 3 2 2 3 5 5 5 5 6 6 5 4 4 3 3 5 7 9 10 11 12 14 15 16 16 17 17 18 18 18 18 18 18 18 18 18 18 18 18 18 18 18 19 19 19 19 17 16
5 5 5 5 5 5 4 4 4 4 5 5 7 7 5 3 2 1 2 1 1 2 2 0 1 2 2 2 2 2 2 1 0 1 2 1 0 2 3 2 2 3 4 5 5 5 6 5 5 4 3 2 2 3 5 8 10 11 13 15 16 17 17 18 18 18 18 18 18 18 18 18 18 18 18 18 18 18 18 19 19 19 18 15 12 9
2 1 0 1 1 2 2 2 3 4 4 4 3 4 4 3 2 2 3 2 2 2 1 1 1 2 2 2 2 2 2 2 1 1 1 1 1 2 2 2 2 3 4 5 5 4 3 3 3 2 2 2 2 2 4 6 8 10 12 14 15 16 16 17 17 17 17 17 17 17 17 18 18 18 18 18 18 18 19 19 19 17 13 11 9 8
3 4 3 3 4 4 4 3 3 4 5 5 5 4 1 2 3 3 3 3 3 2 1 1 1 2 2 2 2 2 2 3 2 1 1 1 1 2 2 2 2 2 3 4 5 4 3 2 2 1 1 2 3 3 3 4 5 6 7 10 11 12 14 15 16 16 16 17 17 17 18 18 18 18 18 18 18 19 19 19 18 14 9 7 7 7
2 2 2 3 3 3 3 2 2 3 4 4 4 3 1 2 2 3 3 3 3 2 2 2 1 1 2 2 2 2 2 3 2 2 2 0 1 2 2 3 3 2 1 2 4 5 5 4 2 1 1 3 3 4 4 4 4 4 4 5 6 8 11 13 14 15 15 16 17 17 18 18 18 18 18 18 19 19 19 19 17 13 8 7 6 6
0 1 1 1 2 2 2 2 2 2 2 2 2 1 1 2 3 3 3 3 3 3 2 2 2 2 2 2 2 2 2 2 2 2 2 1 2 2 2 2 3 2 1 1 2 3 5 5 4 3 3 4 4 4 4 4 4 3 4 4 4 5 9 11 12 12 13 14 15 16 17 17 18 18 18 18 18 19 19 19 17 13 8 7 6 7
0 1 1 1 2 2 1 1 1 2 2 2 2 2 1 2 2 3 3 3 3 3 2 2 2 2 2 3 3 3 2 2 2 3 3 2 2 2 2 2 3 3 2 2 2 3 4 5 5 5 5 5 4 4 4 4 4 3 3 3 3 4 7 8 8 9 10 11 12 13 15 16 16 17 18 18 18 18 18 18 17 15 11 8 7 8
1 1 1 1 2 2 2 1 1 1 2 2 2 3 2 2 2 3 3 3 3 3 3 3 3 3 3 3 3 3 3 2 3 4 4 2 2 2 2 2 3 3 3 3 3 3 4 5 6 6 6 5 4 3 3 4 3 3 2 3 3 4 5 5 5 6 8 8 8 8 10 11 12 14 15 16 16 17 17 18 18 17 16 12 10 9
0 0 1 1 1 2 2 2 2 2 2 2 3 3 3 3 2 3 3 3 3 3 3 3 3 3 3 3 3 3 3 2 3 4 3 2 1 2 2 2 2 3 4 4 4 4 4 6 7 7 7 7 5 4 3 3 3 2 2 3 3 4 4 4 5 5 7 6 6 6 6 6 7 9 10 12 14 16 17 18 18 19 19 17 14 12
1 0 1 1 1 2 2 2 2 2 3 3 3 3 3 3 3 3 3 3 4 4 4 4 4 4 3 3 3 4 4 3 3 3 2 1 1 1 2 2 2 3 4 4 5 5 5 6 7 8 8 8 7 5 3 2 2 3 3 3 4 4 5 5 5 5 5 5 6 6 5 5 6 7 8 12 14 16 18 18 19 19 19 19 18 16
2 1 1 1 1 2 2 2 2 2 2 3 3 3 3 3 3 3 3 4 4 4 4 4 4 4 4 4 4 4 4 3 2 1 1 1 1 1 2 2 3 3 3 4 5 5 6 7 7 8 7 7 6 6 5 4 4 4 5 4 4 5 5 5 5 5 5 5 6 6 6 6 6 7 8 12 14 15 16 17 18 18 19 19 19 19
2 2 2 2 2 2 2 2 2 2 2 3 3 3 3 3 3 3 3 3 3 4 4 4 4 4 6 6 5 5 4 2 2 1 2 2 2 1 2 3 3 3 3 4 5 5 6 7 7 8 7 6 7 7 7 7 6 6 6 6 5 5 5 5 5 4 4 5 6 7 7 7 7 7 7 8 9 9 10 10 11 13 16 16 17 19
2 2 2 2 2 2 2 2 3 3 3 3 3 3 2 2 2 2 2 3 3 3 4 4 3 4 5 5 5 5 3 2 2 3 3 3 2 2 2 3 4 4 3 4 4 5 5 6 6 7 7 7 8 8 7 7 7 8 8 7 6 5 4 4 4 4 4 5 6 7 7 6 6 5 6 6 6 6 7 7 8 9 10 9 11 14
2 2 2 2 3 3 3 4 4 3 3 2 2 1 1 0 1 1 2 2 2 3 3 3 3 3 4 4 4 4 4 3 3 4 3 3 2 2 2 3 4 4 4 4 4 4 5 6 7 7 8 7 8 8 7 7 8 8 10 8 6 5 5 4 4 4 4 4 5 5 5 5 5 5 6 6 6 6 6 6 7 8 8 7 7 8
3 3 3 3 3 3 4 4 3 3 2 1 1 1 1 1 1 1 1 1 1 2 2 2 2 2 3 3 3 4 4 4 5 5 4 4 3 3 3 3 3 4 4 4 4 4 5 6 7 8 7 8 9 9 10 9 9 10 11 9 8 8 8 7 6 5 4 4 4 4 5 6 7 7 7 8 7 7 6 7 7 8 8 6 6 6
4 3 3 3 3 3 3 2 2 2 1 1 1 1 2 2 1 1 1 1 2 2 1 1 2 2 3 3 3 4 4 5 5 6 6 5 5 4 4 4 3 3 3 4 5 5 5 6 7 7 7 7 8 9 9 9 9 9 9 9 10 10 10 8 5 3 3 4 4 4 6 7 7 7 8 8 8 7 8 8 9 10 10 8 6 6
3 2 2 2 2 2 2 2 2 2 2 1 2 2 3 2 2 2 2 2 2 2 2 2 2 3 3 4 3 3 3 4 5 5 5 5 5 5 5 5 4 3 3 4 4 5 6 6 7 7 7 7 8 9 10 10 10 9 9 9 9 9 8 6 4 3 4 5 5 5 5 6 6 7 8 8 8 8 8 9 11 12 11 9 8 7
3 2 2 2 2 2 2 2 2 2 2 2 2 2 3 2 2 2 2 2 3 3 2 2 2 3 3 4 4 3 3 3 3 4 4 5 5 5 5 5 5 4 4 3 4 5 5 6 7 7 6 7 8 9 10 10 10 9 9 9 9 9 8 7 7 7 7 7 6 5 5 6 6 7 7 8 8 8 8 8 8 9 10 9 9 9
2 2 2 2 2 2 1 2 2 2 2 2 2 2 2 2 2 2 2 2 3 3 2 2 3 3 4 4 4 4 3 2 2 3 3 5 6 7 6 5 4 4 4 4 4 5 5 6 7 7 6 7 8 9 10 10 10 10 10 9 9 9 9 8 9 9 8 8 7 6 6 6 6 7 8 8 8 8 8 8 9 9 9 9 9 9
2 2 2 2 2 2 3 3 2 2 2 2 2 2 2 2 2 2 2 3 3 3 3 2 3 3 4 5 4 4 4 3 3 3 3 3 3 4 4 4 4 4 4 4 5 5 5 6 7 7 7 8 8 9 9 9 10 10 10 9 9 9 9 8 7 7 7 8 8 7 7 6 6 7 9 10 10 9 9 9 9 10 10 9 9 9
3 3 3 2 2 2 3 2 2 2 3 3 3 3 3 3 2 2 3 3 3 3 3 3 3 3 5 5 4 4 5 5 4 4 3 3 2 3 3 3 4 4 4 4 5 6 6 7 7 7 7 8 9 9 9 9 9 9 9 9 9 9 8 7 7 7 7 7 7 7 6 5 6 7 9 10 10 10 10 9 9 9 9 9 9 10
3 3 3 3 3 3 3 2 2 3 3 3 3 3 3 3 3 3 3 2 2 3 3 3 3 4 5 5 4 4 5 5 5 5 4 3 3 3 2 2 3 3 4 5 6 6 7 7 8 8 8 9 9 10 10 9 8 8 8 8 8 9 9 9 8 7 7 6 6 6 5 5 6 8 9 10 11 11 10 10 10 9 9 9 9 10
3 4 4 3 4 4 4 3 3 3 3 4 3 3 3 3 3 4 3 2 2 2 3 3 4 4 5 5 5 5 5 5 5 5 4 3 3 3 3 2 2 3 4 4 5 6 6 7 8 9 8 9 9 10 10 9 8 8 7 7 7 8 9 9 8 7 6 7 6 6 5 4 5 7 8 10 12 12 12 11 11 10 9 9 9 9
4 4 4 3 4 4 4 4 4 4 4 4 3 3 2 1 1 1 1 2 2 2 3 3 4 5 5 6 5 5 5 5 5 4 4 3 3 3 3 3 3 4 5 5 5 5 5 5 6 7 9 10 10 9 9 9 8 7 6 6 6 6 7 8 7 7 6 7 7 6 5 5 6 6 7 9 12 13 13 12 11 10 8 8 8 9
4 3 3 3 3 4 4 4 4 4 4 4 3 3 2 1 1 1 1 2 2 3 3 4 4 5 5 6 6 5 5 5 5 5 4 3 3 3 3 3 3 4 5 5 5 5 4 4 4 5 6 9 11 10 7 7 6 6 6 6 5 5 5 6 7 7 7 7 7 7 7 7 7 7 7 8 10 12 12 12 12 11 9 8 8 9
Wind_Direction
54 27 10 17 22 21 5 351 344 340 341 356 9 19 31 39 40 40 42 45 45 43 37 31 24 18 14 15 18 21 24 27 31 34 37 39 41 41 40 37 34 30 24 16 6 355 347 337 329 323 318 313 309 307 304 302 300 299 297 295 293 291 289 287 286 284 283 281 280 280 280 281 282 283 284 283 283 282 281 280 279 278 277 276 275 275
48 38 28 28 36 39 11 350 343 339 338 350 5 19 31 43 43 41 41 44 45 43 39 32 26 21 14 7 7 8 9 9 11 12 14 14 16 16 13 10 3 354 347 338 331 326 322 317 315 312 309 307 305 302 301 299 298 296 295 294 293 291 290 289 288 287 286 286 285 285 286 287 287 287 287 286 285 284 283 282 280 279 278 277 276 275
59 47 38 36 44 50 17 337 329 324 326 338 358 20 39 51 54 50 45 44 43 40 36 27 23 18 10 357 354 353 352 350 348 346 345 344 342 340 338 334 330 326 321 318 315 314 313 312 309 307 305 302 300 298 297 295 294 293 292 291 290 290 289 289 288 288 288 287 287 288 288 288 287 287 285 284 283 282 281 280 279 278 277 276 275 275
105 92 83 49 58 74 227 291 298 304 316 333 354 17 37 50 56 56 53 53 49 44 33 22 12 3 353 342 340 339 337 334 332 330 328 325 323 320 317 315 313 310 308 306 306 306 305 303 301 299 297 295 292 291 291 290 289 289 288 288 288 288 287 287 287 287 287 287 286 286 286 285 284 284 283 282 281 280 280 279 278 277 276 275 275 274
168 168 161 151 173 207 221 253 273 287 308 333 358 15 27 34 38 36 38 43 44 39 15 4 345 328 315 319 322 325 325 324 323 321 319 316 313 311 308 307 305 303 301 299 299 297 297 296 294 292 292 290 289 288 289 288 287 287 287 287 287 287 287 287 286 286 285 285 285 284 284 283 282 282 281 281 280 279 278 278 277 276 276 275 275 275
181 174 162 170 184 200 208 230 250 274 301 333 357 9 21 23 22 23 23 24 18 359 320 297 273 265 269 284 303 311 315 317 318 317 315 313 312 310 308 307 305 303 302 301 299 298 298 298 297 296 296 295 294 294 293 292 291 291 291 291 290 290 289 288 288 287 286 285 285 284 283 283 282 281 281 280 279 279 278 277 277 276 276 276 276 276
177 181 160 177 197 202 201 209 234 282 320 339 347 351 356 3 14 20 18 18 353 326 303 284 266 251 249 269 288 299 309 313 315 314 314 315 314 314 314 315 314 313 311 310 309 308 306 306 305 304 303 302 301 300 298 297 297 296 296 295 295 294 293 292 290 289 288 287 286 285 284 283 282 282 281 280 280 279 278 278 278 277 277 277 277 277
172 204 239 216 222 230 223 227 347 8 11 13 3 352 343 342 338 337 329 8 23 5 333 314 300 282 262 266 280 290 299 304 306 307 309 311 312 313 314 316 318 318 317 316 314 313 311 310 308 307 306 305 304 303 302 301 300 300 300 299 298 298 296 295 293 291 290 289 287 286 285 284 283 282 282 281 280 280 279 279 278 278 278 278 278 278
162 184 232 234 222 282 303 323 344 2 9 44 53 30 354 343 337 336 340 353 7 13 12 354 333 316 297 290 289 287 282 278 278 282 291 292 296 302 307 313 315 317 315 314 313 311 310 310 309 308 308 307 306 304 303 303 302 302 302 301 300 299 298 296 294 293 291 289 288 287 286 285 284 283 282 282 281 280 280 280 280 280 280 280 280 280
146 166 205 229 160 126 99 316 324 334 353 43 77 88 79 23 357 350 349 344 345 351 10 10 346 323 314 322 334 335 317 301 297 297 305 312 311 310 314 321 322 320 315 314 312 311 311 310 310 309 309 307 306 305 304 303 303 302 302 301 300 299 298 296 294 293 291 290 289 288 287 286 285 284 283 282 282 281 281 281 281 281 281 281 282 282
139 143 186 333 6 24 55 317 310 320 348 31 48 53 59 61 54 31 2 339 335 338 346 349 343 334 332 337 344 353 357 341 331 328 332 335 333 333 338 342 340 334 326 321 318 316 314 312 311 310 309 307 306 304 303 302 302 301 300 299 299 298 296 295 293 292 291 290 289 288 287 287 286 285 284 283 283 282 282 282 282 282 282 282 282 283
143 115 28 9 9 6 2 341 335 344 11 34 31 16 4 13 50 91 91 329 326 329 332 327 332 354 9 351 345 346 356 354 348 343 343 343 346 351 355 355 351 345 337 330 324 319 315 313 311 310 308 306 305 303 302 301 300 299 299 297 296 295 294 293 292 291 290 290 289 289 288 288 287 286 286 285 285 284 284 283 283 283 282 282 282 282
87 72 51 26 15 4 357 354 355 4 20 46 61 340 300 312 343 89 121 190 281 303 315 317 323 344 19 13 358 345 341 339 339 340 343 342 346 353 360 357 351 342 337 331 323 316 313 310 309 307 306 304 303 302 301 300 299 297 296 295 294 293 293 292 291 291 290 290 289 289 289 289 288 288 288 287 286 286 285 284 283 283 282 282 282 282
63 54 53 36 6 341 339 15 29 23 315 193 191 199 220 263 342 48 73 343 298 295 311 314 315 324 358 9 1 348 337 344 349 351 349 337 331 334 349 340 325 318 318 314 306 301 301 305 305 304 303 301 301 300 299 297 296 295 294 293 293 293 293 293 292 292 291 291 290 290 290 289 289 288 288 287 286 285 285 284 283 282 282 282 281 281
118 97 88 96 268 269 259 194 185 205 229 228 222 211 222 5 26 46 61 360 329 327 352 342 329 325 339 350 350 350 358 19 17 4 348 327 314 300 340 321 308 300 297 295 291 290 295 297 295 293 295 294 294 294 294 294 293 293 294 294 294 295 295 295 294 293 292 291 291 290 289 289 288 287 287 286 285 285 284 283 283 282 281 281 281 280
144 128 141 190 232 247 241 208 197 208 232 249 271 51 73 55 45 56 82 24 346 355 17 10 354 339 327 328 348 3 19 33 25 1 339 316 301 279 135 313 298 293 288 287 286 288 292 289 284 282 284 288 291 293 294 294 295 296 296 297 297 298 297 296 295 294 293 292 291 290 289 288 288 288 288 287 287 286 285 285 284 283 282 281 280 280
144 141 151 171 216 244 250 231 218 216 224 272 359 46 95 112 108 97 100 89 44 34 40 47 21 338 313 311 329 358 21 32 19 351 325 307 293 275 140 174 274 283 285 285 285 286 289 286 284 283 283 288 292 295 297 298 298 299 299 300 300 299 299 298 297 296 294 293 292 291 291 291 290 290 290 290 289 288 288 287 286 284 283 282 281 280
168 168 158 168 197 224 238 236 236 234 205 126 65 42 39 45 64 83 94 93 86 81 76 95 124 202 272 288 291 307 18 31 9 339 314 299 291 282 151 159 228 264 278 282 283 282 279 277 278 281 285 292 295 297 299 300 300 300 300 300 300 300 300 299 298 297 297 296 295 294 294 294 293 293 293 292 291 290 289 288 286 285 284 283 282 281
188 186 171 179 189 201 213 217 211 199 180 172 150 120 68 33 39 57 73 95 115 129 139 149 181 214 227 253 267 274 355 43 7 326 303 295 292 291 323 159 228 258 273 279 281 280 275 273 277 282 287 293 296 297 298 299 299 299 300 300 300 300 300 300 299 299 298 297 297 296 296 295 295 294 293 292 291 290 288 287 286 285 284 284 283 283
183 199 196 182 169 165 204 228 216 200 184 168 146 125 116 95 66 61 67 80 114 133 140 154 193 230 233 254 270 280 268 53 24 326 289 286 287 290 311 84 254 273 280 279 278 276 274 274 279 285 290 292 294 296 297 297 298 299 300 300 301 301 301 300 300 299 298 297 297 296 296 295 294 293 292 291 290 289 288 287 287 287 286 286 286 286
174 209 218 181 157 153 189 219 216 200 174 143 123 111 117 113 103 91 119 114 110 109 111 161 215 229 229 249 267 276 259 65 36 333 295 292 290 292 312 16 351 296 289 284 281 277 278 279 282 284 287 291 293 295 296 297 298 299 300 300 301 301 301 301 300 300 299 298 297 297 296 295 294 293 292 292 292 292 292 292 292 291 291 290 290 289
165 204 220 189 171 168 186 200 200 185 158 137 127 127 140 140 146 162 183 168 163 174 191 214 225 227 225 245 263 273 280 108 115 155 312 306 297 295 316 11 11 324 296 290 288 288 289 287 284 284 285 290 292 294 296 297 298 299 300 301 302 302 303 302 302 302 301 300 299 298 296 296 296 296 297 297 297 297 297 296 296 295 294 293 292 291
158 184 201 191 189 187 186 186 181 169 157 150 151 157 163 160 165 173 179 179 183 191 206 222 236 246 249 260 276 296 6 96 121 124 81 295 288 289 307 357 357 322 293 291 293 296 295 289 282 280 283 288 291 293 295 297 299 300 302 303 305 306 306 306 306 305 305 304 303 302 302 301 301 301 301 301 300 299 299 298 297 295 294 293 291 290
156 170 184 190 195 196 189 173 166 165 166 165 163 160 157 156 157 161 165 167 171 179 197 244 309 319 304 300 307 316 334 26 93 108 107 266 275 280 296 331 326 310 294 291 292 296 298 291 282 276 277 284 288 291 295 298 301 303 306 308 310 311 312 312 311 310 310 309 308 307 306 305 304 303 302 301 300 299 298 297 296 294 293 292 290 289
160 167 178 186 191 191 183 171 167 167 170 165 146 126 120 117 110 102 90 95 100 94 56 28 1 339 321 333 327 314 305 333 88 113 129 257 274 282 288 305 314 308 301 298 297 298 299 294 288 281 274 280 286 291 296 301 306 310 313 315 316 317 317 316 315 314 313 311 310 309 307 305 304 303 302 301 300 299 298 297 296 295 293 292 291 289
162 166 173 180 183 182 177 172 171 172 173 164 150 133 121 108 90 68 45 48 59 63 52 30 353 314 302 325 312 298 290 300 93 124 137 225 282 290 290 296 309 310 308 307 306 305 300 296 293 288 279 279 289 297 303 310 315 319 321 321 320 319 318 317 316 314 313 311 309 308 306 305 304 303 302 301 300 299 299 298 297 296 296 294 293 290
160 165 170 177 180 182 180 179 180 181 179 169 159 149 135 113 87 58 2 349 76 86 74 32 319 299 300 305 287 278 280 289 315 119 134 136 285 291 290 299 314 317 313 310 307 304 298 295 293 290 285 284 296 311 316 321 324 325 324 322 320 318 317 315 314 313 311 310 308 307 306 305 304 303 302 302 301 301 300 300 300 299 298 297 295 292
151 159 168 179 189 198 205 210 215 217 212 188 170 159 149 123 103 114 252 222 146 109 103 143 287 297 300 288 274 268 270 275 262 158 139 117 251 279 282 299 316 321 317 310 304 297 290 285 283 283 284 294 311 323 323 326 326 325 322 318 316 314 313 312 311 310 309 308 307 307 306 305 304 304 303 303 302 302 302 302 302 301 300 299 297 295
74 64 61 279 281 289 297 305 302 295 286 270 230 193 170 142 146 188 217 180 142 122 137 212 256 281 294 294 290 285 283 277 261 215 137 91 297 277 278 305 318 321 322 313 307 298 280 271 269 274 286 306 313 314 312 322 322 319 315 312 310 309 308 308 308 308 307 307 306 306 306 305 304 304 304 303 303 303 303 303 303 302 301 300 297 295
14 8 357 349 349 354 2 360 344 325 309 300 294 286 232 145 157 176 179 151 140 141 186 229 253 277 299 310 316 315 303 283 261 214 120 46 317 292 295 312 316 320 330 324 318 312 301 283 268 267 292 309 311 309 306 311 309 306 303 303 303 303 303 304 305 306 306 306 306 306 305 305 304 304 304 303 303 303 303 303 303 302 300 297 294 291
3 360 345 342 350 360 6 360 343 328 316 308 309 317 21 126 149 157 152 145 145 153 176 208 239 267 299 315 318 311 296 279 246 194 138 43 309 296 309 312 312 314 330 334 325 318 312 305 294 281 300 307 306 303 300 296 294 291 288 292 293 296 299 302 304 305 306 306 306 305 305 304 304 304 303 303 302 302 302 302 302 301 297 294 290 287
342 344 324 330 341 350 355 350 341 328 319 314 314 315 145 153 154 153 150 152 152 155 169 197 225 249 267 275 277 277 279 280 244 208 185 248 288 292 304 305 307 308 305 311 307 304 304 305 306 307 308 304 300 296 292 289 285 284 284 286 287 292 298 302 304 305 305 305 305 304 304 303 303 302 302 301 301 300 300 300 299 298 295 292 288 286
16 359 342 340 341 346 348 347 338 325 310 300 289 273 237 193 176 168 164 165 163 165 177 202 227 244 254 255 258 262 268 273 264 258 261 267 281 288 295 300 303 306 307 295 280 275 280 292 300 305 304 301 297 294 291 288 284 281 281 286 288 293 298 302 302 302 301 302 302 302 302 302 301 300 300 299 298 298 297 297 296 295 293 291 288 287
37 12 353 346 339 336 333 334 327 311 297 285 276 266 253 230 206 190 183 183 185 188 193 206 223 241 257 261 263 263 263 256 262 270 281 274 275 284 294 299 305 308 312 304 295 287 280 287 294 301 302 301 298 293 290 287 286 283 276 278 282 288 294 297 297 295 295 296 297 297 298 298 297 296 297 296 296 295 295 295 294 293 293 292 291 290
54 350 339 334 326 320 313 312 304 293 283 273 265 259 250 239 226 214 205 202 202 205 206 209 215 226 241 256 268 272 272 262 263 270 281 271 273 286 294 298 307 314 313 308 305 301 293 292 295 298 300 302 300 296 284 277 278 278 271 267 270 276 282 284 287 289 291 291 291 290 290 290 290 291 292 292 293 293 294 294 294 294 294 293 292 291
181 229 274 287 291 291 289 287 285 279 273 266 259 251 242 235 230 225 220 215 213 213 215 215 216 217 221 236 252 264 271 269 272 276 282 244 233 275 292 299 310 317 313 308 305 302 298 296 296 296 297 299 300 300 295 285 283 285 285 278 277 277 278 277 278 280 285 286 287 287 287 287 286 286 287 291 292 294 294 295 296 295 294 293 291 288
200 219 239 244 250 256 262 265 264 262 259 259 256 249 237 233 230 229 228 223 221 222 223 225 225 224 223 226 236 246 256 260 264 261 209 165 176 226 277 293 307 314 309 304 302 301 299 298 297 297 295 294 296 301 306 308 306 302 296 294 291 288 284 278 274 271 275 279 283 286 288 288 287 288 289 292 294 296 297 297 296 294 293 291 289 286
208 215 223 224 225 228 234 242 243 242 240 242 247 247 240 235 232 232 236 233 234 234 235 235 237 238 237 241 243 245 245 242 220 186 167 170 183 219 273 292 301 304 297 293 293 295 296 297 298 300 298 294 293 296 303 308 308 305 301 298 294 289 284 278 273 269 270 277 282 286 289 290 291 292 293 295 296 297 295 293 292 291 291 290 288 285
224 223 220 217 213 212 216 227 232 233 231 236 240 243 241 238 238 239 243 242 240 239 237 240 244 249 251 255 258 257 251 222 189 176 174 181 196 227 277 291 295 293 287 280 280 282 286 288 291 295 298 298 298 299 300 302 303 303 304 301 296 287 279 278 276 275 274 278 284 288 290 292 293 293 292 292 292 291 291 290 289 289 290 290 288 286
229 228 225 220 212 208 212 224 230 234 235 243 255 262 250 256 265 266 259 249 244 242 241 242 247 253 258 261 261 258 246 216 193 185 183 192 207 236 267 277 282 284 282 275 272 272 275 279 282 285 289 293 296 299 300 299 300 303 306 305 303 299 297 295 289 284 279 279 283 287 291 291 289 288 288 288 288 288 289 290 290 289 288 287 287 287
235 233 227 219 213 211 216 223 228 231 231 231 257 268 231 215 237 261 271 255 247 243 243 245 249 253 254 249 245 239 230 221 213 210 211 216 227 239 250 257 264 271 276 275 273 272 271 276 280 283 285 288 291 293 293 295 298 301 303 301 300 300 302 298 294 289 286 282 280 282 288 292 293 293 292 291 289 286 285 285 286 286 285 279 277 279
243 241 230 219 214 214 217 219 218 213 199 188 208 228 228 217 217 227 248 257 257 250 236 235 246 256 262 253 243 234 227 227 228 229 231 229 228 230 235 243 249 258 267 273 275 274 272 274 278 282 285 289 291 292 292 292 294 296 297 297 299 301 300 295 290 285 288 286 284 284 289 293 295 295 293 291 289 286 284 281 281 281 282 280 275 271
251 249 237 228 220 213 206 204 205 202 193 199 220 232 233 227 223 228 245 261 265 265 256 248 252 262 271 272 267 255 241 235 235 235 235 229 225 223 227 232 237 244 255 269 276 277 276 275 276 278 282 286 287 288 289 292 294 294 292 295 299 302 301 299 300 298 293 291 291 292 293 293 293 292 291 291 290 288 286 283 281 280 280 280 279 275
265 262 253 240 227 220 213 213 217 221 221 222 230 237 239 234 238 248 259 266 273 275 274 268 267 270 274 277 277 274 261 246 236 231 231 226 221 218 221 224 228 233 238 255 271 280 284 280 277 277 280 283 283 284 286 289 291 292 291 291 291 289 287 294 300 303 300 297 295 294 292 293 293 294 293 290 289 287 286 284 282 279 278 277 276 275
263 268 268 266 263 261 258 253 252 253 254 247 244 242 240 227 227 239 258 270 276 278 276 278 281 283 282 282 283 283 279 267 252 241 239 235 232 229 224 223 225 230 235 244 257 270 281 283 283 283 282 279 278 278 281 285 287 288 288 288 286 282 279 285 292 297 299 299 298 296 294 295 296 296 294 292 290 288 286 286 285 283 281 278 275 274
255 259 264 267 271 273 270 267 267 267 265 257 252 246 240 222 219 232 251 262 268 272 271 270 275 280 283 286 289 291 290 285 278 270 261 250 241 234 228 226 228 235 244 252 258 262 267 274 281 285 287 282 276 273 273 278 282 285 286 287 286 285 283 285 287 291 293 294 294 294 295 296 296 294 293 293 292 290 287 285 284 283 282 279 276 272
261 263 262 264 265 265 263 261 259 259 258 256 252 249 246 240 239 244 253 255 260 264 270 267 267 270 276 282 286 290 290 290 289 286 281 272 260 247 238 237 239 242 251 259 263 263 263 265 269 275 280 281 279 276 273 273 275 279 282 285 287 287 286 286 286 287 287 287 289 292 297 299 297 293 291 292 292 290 288 285 281 279 277 276 273 271
264 266 267 268 270 270 267 258 251 249 253 256 257 256 253 250 250 254 258 257 259 266 275 276 275 275 276 279 281 283 285 288 290 291 292 289 282 273 259 257 255 257 260 265 267 267 265 262 260 260 263 269 273 276 277 275 273 274 277 282 285 286 285 285 286 286 285 284 284 286 291 294 294 294 295 295 293 290 288 286 282 278 274 272 270 269
252 256 260 262 264 265 265 260 254 252 255 258 261 262 259 256 258 261 265 267 271 276 280 282 282 282 282 281 281 282 282 284 287 289 292 293 292 289 283 281 281 281 281 278 275 272 269 262 254 249 247 252 260 268 274 274 273 273 274 277 279 281 282 284 285 286 287 285 284 283 282 282 284 289 293 292 291 289 288 287 284 279 274 270 268 266
241 245 251 255 258 261 264 263 263 262 264 265 266 265 261 253 246 247 256 270 278 281 282 283 283 283 283 283 284 284 283 284 286 289 290 292 295 296 295 297 299 300 298 294 290 286 282 274 260 247 240 242 248 257 268 272 273 274 272 271 271 274 278 282 285 287 288 288 288 287 286 284 283 283 284 284 285 285 286 285 283 280 276 272 269 268
246 248 250 253 257 261 264 266 268 269 271 271 270 267 261 256 255 265 281 290 291 289 286 283 282 281 282 284 285 285 284 285 287 289 291 294 297 298 298 301 305 307 305 303 301 300 297 294 286 270 250 243 243 247 257 265 271 275 274 271 269 270 274 280 284 288 290 290 290 290 290 287 284 281 278 279 281 283 284 284 283 281 280 279 276 274